Regional Weather Roundup
Issued by NWS

Home | Current Version | Previous Version | Text Only | Print | Product List | Glossary Off
Versions: 1 2 3 4 5 6 7 8 9 10 11 12 13 14 15 16 17 18 19 20 21 22 23 24 25 26 27 28 29 30 31 32 33 34 35 36 37 38 39 40 41 42 43 44 45 46 47 48 49 50

000
ASUS43 KLSX 291659
RWRMO

WEATHER SUMMARY FOR MISSOURI
NATIONAL WEATHER SERVICE SPRINGFIELD MO
1200 PM CDT FRI MAY 29 2015

NOTE: "FAIR" INDICATES FEW OR NO CLOUDS BELOW 12,000 FEET WITH NO
       SIGNIFICANT WEATHER AND/OR OBSTRUCTIONS TO VISIBILITY.
       CURRENT SKY AND/OR WEATHER CONDITIONS ARE NOT AVAILABLE FOR
       CHILLICOTHE AND FARMINGTON.

MOZ001>031-035>038-043-044-053-054-291800-
...NORTHERN AND WESTERN MISSOURI...

CITY           SKY/WX    TMP DP  RH WIND       PRES   REMARKS
KANSAS CTY INT LGT RAIN  68  65  90 SW13      30.01R
KANSAS C DTWN  LGT RAIN  71  64  78 SW7       30.00R
LEE`S SUMMIT   LGT RAIN  68  64  87 SW10      30.02R
ST JOSEPH      LGT RAIN  66  63  90 S6        29.99R
CHILLICOTHE      N/A     74  63  68 SW7       30.00S
KIRKSVILLE     CLOUDY    73  68  84 SW7       30.01R

$$
MOZ066>068-077>081-088>096-101>105-291800-
...SOUTHWEST MISSOURI...

CITY           SKY/WX    TMP DP  RH WIND       PRES   REMARKS
SPRINGFIELD    LGT RAIN  70  66  87 VRB3      30.06F
JOPLIN         CLOUDY    70  66  87 E10       30.02F

$$
MOZ032>034-039>042-045>050-055>058-069>072-291800-
...CENTRAL MISSOURI...

CITY           SKY/WX    TMP DP  RH WIND       PRES   REMARKS
COLUMBIA       LGT RAIN  72  66  81 S8        30.02F
JEFFERSON CITY CLOUDY    73  66  78 SE9       30.02F
ROLLA          CLOUDY    70  66  87 S8        30.06S
SEDALIA        LGT RAIN  71  64  78 SW16G23   30.03R
OSAGE BEACH    CLOUDY    70  64  83 SW7       30.07R

$$
MOZ051-052-059>065-291800-
...EAST CENTRAL MISSOURI...

CITY           SKY/WX    TMP DP  RH WIND       PRES   REMARKS
ST LOUIS INTL  LGT RAIN  81  65  58 SW14      30.04S
SPIRIT OF STL  MOSUNNY   80  67  64 W8        30.02S
ST CHARLES     PTSUNNY   81  66  60 SW12      30.02F

$$
MOZ072>076-082>087-097>100-106>115-291800-
...SOUTH CENTRAL AND SOUTHEAST MISSOURI...

CITY           SKY/WX    TMP DP  RH WIND       PRES   REMARKS
CAPE GIRARDEAU PTSUNNY   81  69  67 S8        30.07F
FARMINGTON     MOSUNNY   79  70  73 S12       30.10F
POPLAR BLUFF   PTSUNNY   81  68  64 S9        30.06F
WEST PLAINS    CLOUDY    77  68  73 SW12      30.08F

$$


USA.gov is the U.S. government's official web portal to all federal, state and local government web resources and services.